Location: Dob?e?
(49.9411°N, 15.1496°E)
Time: 04:21:07
(UTC+00:00)

STARLINK-41 - Pass Details

Date: 07 June 2020
Orbit: 358 x 360 km, 53.0° (Epoch: 10 July)

Event Time Altitude Azimuth Distance (km) Brightness Sun altitude
Exits shadow 23:15:29 18° 105° (ESE) 978 4.8 -17.2°
Drops below altitude 10° 23:16:42 10° 86° (E) 1,345 5.7 -17.2°
Enters shadow 00:14:55 -64° 246° (WSW) 11,881 10.3 -15.3°
Maximum altitude 00:49:21 75° 340° (NNW) 379 2.9 -13.2°
